This demonstration page uses our WeatherBlox Daily Observations layout. Learn more.

Left ArrowRight Arrow

41.86663, -103.66717

Hourly Observations for December 12, 2020

Temp ( °F °C ) Dew Point ( °F °C ) Humidity (%) Winds ( mph kmh ) Pressure ( in mb ) Visibility ( mi km ) Precip ( " mm )
12:13 am 00:13 Cloudy 22 -5.6 18 -7.8 85 85 E 6 9 30.20 1023 7 11 0.00 0.00
12:21 am 00:21 Cloudy with Mist and Fog 22 -5.6 18 -7.8 85 85 E 7 11 30.19 1022 3 5 0.00 0.00
12:32 am 00:32 Mostly Cloudy 20 -6.7 17 -8.3 89 89 ENE 3 6 30.21 1023 8 13 0.00 0.00
12:53 am 00:53 Partly Cloudy with Mist and Fog 20 -6.7 17 -8.3 89 89 NW 3 6 30.09 1019 1 2 0.00 0.00
12:58 am 00:58 Mostly Cloudy with Freezing Fog 19 -7 18 -8 93 93 NW 5 7 30.23 1024 0 0 0.00 0.00
1:53 am 01:53 Mostly Cloudy with Freezing Fog 18 -7.8 14 -10 84 84 NE 5 7 30.11 1020 1 1 0.00 0.00
2:10 am 02:10 Mostly Cloudy with Freezing Fog 17 -8.3 13 -10.6 84 84 E 3 6 30.26 1025 0 0 0.00 0.00
2:32 am 02:32 Mostly Cloudy with Freezing Fog 16 -8.9 12 -11.1 84 84 ESE 3 6 30.27 1025 1 1 0.00 0.00
2:41 am 02:41 Hazy 17 -8.3 12 -11.1 80 80 ESE 3 6 30.26 1025 1 2 0.00 0.00
2:44 am 02:44 Mostly Clear with Mist and Fog 17 -8.3 13 -10.6 84 84 ESE 5 7 30.25 1024 4 6 0.00 0.00
2:53 am 02:53 Clear 17 -8.3 12 -11.1 80 80 E 6 9 30.10 1019 10 16 0.00 0.00
3:53 am 03:53 Clear 16 -8.9 11 -11.7 80 80 E 7 11 30.09 1019 10 16 0.00 0.00
4:53 am 04:53 Clear 14 -10 9 -12.8 80 80 E 3 6 30.08 1019 10 16 0.00 0.00
5:53 am 05:53 Mostly Cloudy 15 -9.4 10 -12.2 80 80 E 5 7 30.08 1019 10 16 0.00 0.00
6:53 am 06:53 Cloudy 19 -7.2 14 -10 81 81 E 6 9 30.08 1019 10 16 0.00 0.00
7:53 am 07:53 Cloudy 20 -6.7 15 -9.4 81 81 E 6 9 30.06 1018 10 16 0.00 0.00
8:53 am 08:53 Cloudy 22 -5.6 18 -7.8 85 85 SSE 8 13 30.09 1019 10 16 0.00 0.00
9:53 am 09:53 Sunny 24 -4.4 19 -7.2 81 81 E 8 13 30.07 1018 10 16 0.00 0.00
10:53 am 10:53 Partly Cloudy 28 -2.2 21 -6.1 75 75 ESE 5 7 30.06 1018 10 16 0.00 0.00
11:53 am 11:53 Cloudy 30 -1.1 21 -6.1 69 69 ESE 5 7 30.02 1017 10 16 0.00 0.00
12:53 pm 12:53 Cloudy 33 0.6 21 -6.1 61 61 E 3 6 29.98 1015 10 16 0.00 0.00
1:53 pm 13:53 Cloudy 34 1.1 21 -6.1 59 59 SSE 5 7 29.99 1016 10 16 0.00 0.00
2:41 pm 14:41 Cloudy with Light Snow 31 -0.6 25 -3.9 79 79 SE 5 7 30.02 1017 2 3 0.00 0.00
2:53 pm 14:53 Cloudy with Light Snow 31 -0.6 24 -4.4 76 76 E 6 9 30.02 1017 3 4 0.00 0.00
3:10 pm 15:10 Cloudy with Light Snow 31 -0.6 24 -4.4 76 76 E 7 11 30.03 1017 3 4 0.00 0.00
3:25 pm 15:25 Cloudy with Haze 31 -0.6 24 -4.4 76 76 E 5 7 30.04 1017 4 6 0.00 0.00
3:35 pm 15:35 Cloudy 31 -0.6 24 -4.4 76 76 NE 5 7 30.04 1017 9 14 0.00 0.00
3:53 pm 15:53 Cloudy 31 -0.6 23 -5 72 72 NNE 5 7 30.05 1018 10 16 0.00 0.00
4:17 pm 16:17 Cloudy with Light Snow 30 -1.1 24 -4.4 79 79 NE 5 7 30.08 1019 2 3 0.00 0.00
4:27 pm 16:27 Cloudy with Light Snow 30 -1.1 24 -4.4 79 79 NE 3 6 30.09 1019 2 3 0.01 0.25
4:37 pm 16:37 Cloudy with Light Snow 30 -1.1 24 -4.4 79 79 NE 5 7 30.09 1019 1 2 0.01 0.25
4:53 pm 16:53 Cloudy with Light Snow 29 -1.7 24 -4.4 82 82 E 5 7 30.10 1019 1 2 0.02 0.51
5:23 pm 17:23 Cloudy with Light Snow 29 -1.7 25 -3.9 85 85 Calm 30.12 1020 1 2 0.01 0.25
5:53 pm 17:53 Cloudy with Light Snow 29 -1.7 25 -3.9 85 85 Calm 30.13 1020 2 2 0.02 0.51
6:53 pm 18:53 Cloudy with Light Snow 28 -2.2 25 -3.9 88 88 ENE 3 6 30.15 1021 1 2 0.02 0.51
7:00 pm 19:00 Mostly Cloudy with Light Snow 28 -2.2 25 -3.9 88 88 Calm 30.19 1022 1 2 0.00 0.00
7:29 pm 19:29 Mostly Cloudy with Light Snow 28 -2.2 25 -3.9 88 88 N 3 6 30.20 1023 1 1 0.02 0.51
7:37 pm 19:37 Mostly Cloudy with Light Snow 28 -2.2 25 -3.9 88 88 N 5 7 30.21 1023 1 1 0.03 0.76
7:53 pm 19:53 Mostly Cloudy with Light Snow 28 -2.2 25 -3.9 88 88 N 5 7 30.18 1022 1 1 0.05 1.27
8:19 pm 20:19 Mostly Cloudy with Light Snow 28 -2.2 24 -4.4 85 85 NNW 7 11 30.22 1023 1 2 0.02 0.51
8:34 pm 20:34 Cloudy with Light Snow 28 -2.2 24 -4.4 85 85 NW 5 7 30.22 1023 2 3 0.02 0.51
8:53 pm 20:53 Cloudy with Light Snow 28 -2.2 24 -4.4 85 85 WNW 9 15 30.19 1022 3 4 0.03 0.76
9:01 pm 21:01 Cloudy with Light Snow 27 -2.8 23 -5 85 85 NW 9 15 30.24 1024 3 5 0.00 0.00
9:10 pm 21:10 Cloudy with Haze 27 -3 21 -6 80 80 NW 9 15 30.25 1024 6 10 0.00 0.00
9:39 pm 21:39 Cloudy 27 -2.8 22 -5.6 81 81 NW 8 13 30.27 1025 10 16 0.00 0.00
9:53 pm 21:53 Cloudy 27 -2.8 22 -5.6 81 81 NNW 9 15 30.22 1023 8 13 0.00 0.00
10:53 pm 22:53 Cloudy 26 -3.3 20 -6.7 78 78 NW 8 13 30.24 1024 10 16 0.00 0.00
11:53 pm 23:53 Clear 19 -7.2 13 -10.6 77 77 WNW 10 17 30.27 1025 10 16 0.00 0.00

Powered by AerisWeather